Custer, SD

3:05 AM MST on February 23, 2017 (GMT -0700)
Custer County

Weather History for KCUT - October, 2010

Change the Weather History Date:

Sunday, October 31, 2010

  Actual Average Record
Temperature  
Mean Temperature 43 °F 38 °F  
Max Temperature 56 °F 49 °F 73 °F (1950)
Min Temperature 30 °F 27 °F -1 °F (1991)
Degree Days  
Heating Degree Days 22 27  
Month to date heating degree days 531 694  
Since 1 July heating degree days 955 1179  
Cooling Degree Days 0 0  
Month to date cooling degree days 0 0  
Year to date cooling degree days 179 177  
Moisture  
Dew Point 31 °F    
Average Humidity 68    
Maximum Humidity 92    
Minimum Humidity 43    
Precipitation  
Precipitation T in 0.02 in 1.59 in (1974)
Month to date precipitation 0.90 1.47  
Year to date precipitation 19.53 17.96  
Sea Level Pressure  
Sea Level Pressure 29.98 in    
Wind  
Wind Speed 4 mph (WSW)    
Max Wind Speed 14 mph    
Max Gust Speed 20 mph    
Visibility 10 miles    
Events      
T = Trace of Precipitation, MM = Missing Value Source: NWS Daily Summary

Daily Weather History Graph

Daily Weather History Graph

Search for Another Location

Airport or City:

Trip Planner

Search our weather history database for the weather conditions in past years. The results will help you decide how hot, cold, wet, or windy it might be!

Date:

Astronomy

Oct. 31, 2010 Rise Set
Actual Time 7:29 AM MDT 5:46 PM MDT
Civil Twilight 6:59 AM MDT 6:16 PM MDT
Nautical Twilight 6:25 AM MDT 6:50 PM MDT
Astronomical Twilight 5:51 AM MDT 7:23 PM MDT
Moon 12:44 AM MDT (10/31) 2:35 PM MDT (10/31)
Length of Visible Light 11h 16m
Length of Day
10h 17m
Last Quarter, 36% of the Moon is Illuminated
Oct 31
Last Quarter
Nov 5
New
Nov 13
First Quarter
Nov 21
Full
Nov 28
Last Quarter

Hourly Weather History & Observations

Time (MDT) Temp. Windchill Dew Point Humidity Pressure Visibility Wind Dir Wind Speed Gust Speed Precip Events Conditions
12:53 AM 37.9 °F - 28.9 °F 70% 29.99 in 10.0 mi Calm Calm - 0.00 in   Overcast
1:53 AM 39.0 °F - 28.9 °F 67% 29.95 in 10.0 mi Calm Calm - 0.00 in   Overcast
2:53 AM 37.9 °F 32.7 °F 28.0 °F 68% 29.93 in 10.0 mi East 6.9 mph - N/A   Scattered Clouds
3:53 AM 35.1 °F 31.0 °F 28.9 °F 78% 29.95 in 10.0 mi East 4.6 mph - N/A   Mostly Cloudy
4:53 AM 30.9 °F - 28.0 °F 89% 29.98 in 10.0 mi Calm Calm - N/A   Overcast
5:53 AM 32.0 °F - 28.9 °F 88% 30.00 in 10.0 mi Calm Calm - N/A   Overcast
6:53 AM 37.0 °F 32.4 °F 30.0 °F 76% 30.00 in 10.0 mi SW 5.8 mph - N/A   Overcast
7:53 AM 36.0 °F 30.3 °F 30.0 °F 79% 30.00 in 10.0 mi SSW 6.9 mph - N/A   Clear
8:53 AM 39.0 °F - 30.9 °F 73% 29.98 in 10.0 mi Calm Calm - N/A   Mostly Cloudy
9:53 AM 42.1 °F 37.7 °F 30.9 °F 65% 29.97 in 10.0 mi SW 6.9 mph - N/A   Partly Cloudy
10:53 AM 46.9 °F - 32.0 °F 56% 29.94 in 10.0 mi West 9.2 mph - N/A   Clear
11:53 AM 52.0 °F - 34.0 °F 50% 29.91 in 10.0 mi Variable 5.8 mph - N/A   Clear
12:53 PM 53.1 °F - 34.0 °F 48% 29.90 in 10.0 mi WSW 8.1 mph - N/A   Clear
1:53 PM 55.9 °F - 34.0 °F 44% 29.88 in 10.0 mi SW 9.2 mph - N/A   Clear
2:53 PM 55.9 °F - 34.0 °F 44% 29.89 in 10.0 mi West 8.1 mph 19.6 mph N/A   Clear
3:53 PM 51.1 °F - 33.1 °F 50% 29.95 in 10.0 mi SW 4.6 mph - N/A   Scattered Clouds
4:53 PM 50.0 °F - 35.1 °F 57% 29.99 in 10.0 mi West 9.2 mph 18.4 mph N/A   Overcast
5:53 PM 48.0 °F - 34.0 °F 58% 30.02 in 10.0 mi Calm Calm - N/A   Clear
6:53 PM 46.9 °F - 33.1 °F 59% 30.02 in 10.0 mi Calm Calm - N/A   Clear
7:53 PM 45.0 °F 41.8 °F 32.0 °F 60% 30.06 in 10.0 mi West 5.8 mph - N/A   Clear
8:53 PM 43.0 °F 41.3 °F 32.0 °F 65% 30.08 in 10.0 mi WNW 3.5 mph - N/A   Clear
9:53 PM 43.0 °F - 30.9 °F 62% 30.07 in 10.0 mi Calm Calm - N/A   Overcast
10:53 PM 45.0 °F 42.6 °F 30.0 °F 56% 30.07 in 10.0 mi West 4.6 mph - N/A   Overcast
11:53 PM 45.0 °F 43.5 °F 30.9 °F 58% 30.06 in 10.0 mi Variable 3.5 mph - N/A   Overcast